sat.trackr.live / text

‹ back to catalog

STARLINK-5986

NORAD 56452 · 2023-064E

PAYLOAD ACTIVE UNKNOWN

§ Identity

Operator
Country
US
Launch date
2023-05-10
Launch site
AFWTR
Launch vehicle
Mass (kg)
RCS (m²)

Purposes: comms

External: N2YO · Heavens-Above · Gunter

§ Orbital elements

Epoch: 2026-09-20T13:40:46.113024Z

Period
96.11 min
Inclination
70.0013°
Eccentricity
0.0003170
Mean motion
14.98330246 rev/d
Perigee alt
569.9 km
Apogee alt
574.3 km
Semi-major
6,950.2 km
B*
3.4896e-6
RAAN
13.2407°
Arg perigee
270.3126°
Mean anomaly
89.7670°
Rev number
18,443

§ Raw data

STARLINK-59861 56452U 23064E   26263.56997816 -.00000051  00000+0  34896-5 0  99982 56452  70.0013  13.2407 0003170 270.3126  89.7670 14.98330246184431

JSON: /api/v1/satellites/56452 · /tle

For live sub-satellite position, see the globe view (requires WebGL).

§ Visibility from observer

Set your observer location to see the next 7 days of passes ≥ 10°. The values pass through the URL so the page stays shareable.

No JS? Fill the form by hand. The geolocation button needs JavaScript.